Regional Weather Roundup
Issued by NWS

Home | Current Version | Previous Version | Text Only | Print | Product List | Glossary Off
Versions: 1 2 3 4 5 6 7 8 9 10 11 12 13 14 15 16 17 18 19 20 21 22 23 24 25 26 27 28 29 30 31 32 33 34 35 36 37 38 39 40 41 42 43 44 45 46 47 48 49 50

000
ASUS43 KDMX 020603
RWRIA

WEATHER ROUNDUP FOR IOWA
NATIONAL WEATHER SERVICE DES MOINES IA
100 AM CDT MON MAY 02 2016

NOTE: "FAIR" INDICATES FEW OR NO CLOUDS BELOW 12,000 FEET WITH NO
SIGNIFICANT WEATHER AND/OR OBSTRUCTIONS TO VISIBILITY.

* - THESE STATIONS ARE NOT NWS STATIONS...THUS NOT UNDER NWS
QUALITY CONTROL.  THEY ALSO DO NOT REPORT WEATHER SUCH
AS PRECIPITATION OR FOG.

IAZ001>003-012>014-020>022-031>034-043>046-020700-
   NORTHWEST IOWA

CITY           SKY/WX    TMP DP  RH WIND       PRES   REMARKS
CARROLL *      MOCLDY    46  45  93 N9        30.12F
CHEROKEE *     MOCLDY    41  39  95 CALM      30.15F
DENISON *      CLOUDY    48 N/A N/A CALM      30.12S
LE MARS *      CLEAR     39  39 100 CALM      30.17S
ORANGE CITY *  CLEAR     43  39  87 NW3       30.16S
SHELDON *      CLEAR     39  39 100 NW5       30.15S
SIOUX CITY     CLEAR     40  37  89 NW6       30.16F
6HR MIN TEMP:  39; 6HR MAX TEMP:  55;

SPENCER        MOCLDY    39  36  89 NW6       30.15S WCI  35
6HR MIN TEMP:  38; 6HR MAX TEMP:  54;

STORM LAKE *   MOCLDY    46  39  76 NW8       30.15S
$$

IAZ055>058-069>071-079>083-090>094-020700-
   SOUTHWEST IOWA

CITY           SKY/WX    TMP DP  RH WIND       PRES   REMARKS
ATLANTIC *     CLOUDY    46  45  93 CALM      30.14R
AUDUBON *      CLEAR     46  43  87 NW5       30.13S
CLARINDA *       N/A    N/A N/A N/A MISG        N/A
COUNCIL BLFS * CLOUDY    48  46  93 CALM      30.15S
CRESTON *      MOCLDY    45  43  93 NW7       30.14S
HARLAN  *      CLOUDY    48  45  87 CALM      30.17S
LAMONI         CLOUDY    46  45  96 NW6       30.12R
6HR MIN TEMP:  46; 6HR MAX TEMP:  47;

RED OAK *      CLOUDY   127 N/A N/A NW7       30.15S
SHENANDOAH *   CLOUDY    46  46 100 W5        30.17R
$$

IAZ047>049-059>061-072>074-084-020700-
   CENTRAL IOWA

CITY           SKY/WX    TMP DP  RH WIND       PRES   REMARKS
AMES           CLOUDY    45  44  97 N7        30.12F
6HR MIN TEMP:  45; 6HR MAX TEMP:  50;

ANKENY *       CLOUDY    46  46 100 N5        30.11F
BOONE *        PTCLDY    43  43 100 N7        30.11F
CHARITON *     MOCLDY    48  46  93 NW5       30.12R
DES MOINES     MOCLDY    48  44  86 N7        30.12R
6HR MIN TEMP:  48; 6HR MAX TEMP:  50; 6HR PCP: TRACE;

GRINNELL*      CLOUDY    46  44  93 NW5       30.10F
KNOXVILLE *    CLOUDY    48  45  87 N8        30.09R
MARSHALLTOWN   CLOUDY    45  43  93 NW5       30.12R
6HR MIN TEMP:  45; 6HR MAX TEMP:  49;

NEWTON *       CLOUDY    46  46 100 N8        30.09F
PELLA *        CLOUDY    46  46 100 N3        30.11S
$$

IAZ004>006-015-016-023>025-035-036-020700-
   NORTH CENTRAL IOWA

CITY           SKY/WX    TMP DP  RH WIND       PRES   REMARKS
ALGONA *       CLOUDY    46  43  87 W5        30.14S
CLARION *      CLOUDY    45  45 100 CALM      30.14S
ESTHERVILLE    PTCLDY    43  39  86 NW7       30.14S
6HR MIN TEMP:  43; 6HR MAX TEMP:  54;

FORT DODGE *   CLOUDY    45  41  87 CALM      30.14F
MASON CITY     CLOUDY    44  43  96 W6        30.14R
6HR MIN TEMP:  40; 6HR MAX TEMP:  51;

FOREST CITY *  CLOUDY    45  43  93 CALM      30.13S
WEBSTER CITY * CLOUDY    45  45 100 NW6       30.12F
IOWA FALLS *   CLOUDY    41  39  95 NW3       30.14R FOG
$$

IAZ007>011-017>019-026>030-037>042-050>054-066-020700-
   NORTHEAST IOWA

CITY           SKY/WX    TMP DP  RH WIND       PRES   REMARKS
CEDAR RAPIDS   CLOUDY    46  46 100 NW7       30.08R
6HR MIN TEMP:  46; 6HR MAX TEMP:  48; 6HR PCP:  0.01;

CHARLES CITY * CLOUDY    45  45 100 W5        30.13R
CLINTON *      CLOUDY    48  47  96 N5        30.06R
DECORAH *      PTCLDY    43  43 100 CALM      30.11R FOG
DUBUQUE        CLOUDY    47  42  83 N7        30.08R
6HR MIN TEMP:  47; 6HR MAX TEMP:  48; 6HR PCP:  0.01;

MONTICELLO *   MOCLDY    46  43  87 N10       30.07F
OELWEIN *      CLOUDY    45  45 100 N3        30.11S
WATERLOO       CLOUDY    45  42  89 NW6       30.11R
6HR MIN TEMP:  45; 6HR MAX TEMP:  48;

$$

IAZ064-065-067-068-078-020700-
   EAST CENTRAL IOWA

CITY           SKY/WX    TMP DP  RH WIND       PRES   REMARKS
DAVENPORT      CLOUDY    47  46  97 N6        30.06R
6HR MIN TEMP:  47; 6HR MAX TEMP:  49; 6HR PCP:  0.10;

IOWA CITY      CLOUDY    48  46  93 N5        30.09R
6HR MIN TEMP:  48; 6HR MAX TEMP:  49; 6HR PCP:  0.01;

MT. PLEASANT * CLOUDY    50  50 100 N6        30.08R
MUSCATINE *    CLOUDY    48  46  93 N8        30.07R
QUAD CITIES    CLOUDY    50  47  89 CALM      30.04S
6HR MIN TEMP:  50; 6HR MAX TEMP:  51; 6HR PCP:  0.04;

$$

IAZ062-063-075>077-085>089-095>099-020700-
   SOUTHEAST IOWA

CITY           SKY/WX    TMP DP  RH WIND       PRES   REMARKS
BURLINGTON     CLOUDY    49  49 100 NW5       30.06R
6HR MIN TEMP:  49; 6HR MAX TEMP:  50;

FAIRFIELD *    CLOUDY    48  46  93 N6        30.08R
FORT MADISON * CLOUDY    48  48 100 NW3       30.08R
KEOKUK *       CLOUDY    50  48  93 NW5       30.07R FOG
OSKALOOSA *    CLOUDY    46  46 100 N8        30.09S
OTTUMWA        CLOUDY    47  46  97 N7        30.09R
6HR MIN TEMP:  47; 6HR MAX TEMP:  48; 6HR PCP: TRACE;

WASHINGTON *   CLOUDY    48  48 100 N8        30.08F
$$

ABBREVIATIONS USED IN REMARKS
   TC - TEMPERATURES IN CELSIUS
  WCI - WIND CHILL INDEX
   HX - HEAT INDEX
  VSB - VISIBILITY
$$





USA.gov is the U.S. government's official web portal to all federal, state and local government web resources and services.